Time,TemperatureF,DewpointF,PressureIn,WindDirection,WindDirectionDegrees,WindSpeedMPH,WindSpeedGustMPH,Humidity,HourlyPrecipIn,Conditions,Clouds,dailyrainin,SoftwareType,DateUTC
2013-03-03 00:01:00,36.9,15.9,29.93,SSE,157,0.0,0.0,42,0.00,,CLR,0.00,VWS V13.01,2013-03-03 07:01:00,
2013-03-03 00:06:00,36.9,15.9,29.93,SSE,157,0.0,0.0,42,0.00,,CLR,0.00,VWS V13.01,2013-03-03 07:06:00,
2013-03-03 00:11:00,36.7,16.3,29.93,SSE,157,0.0,0.0,43,0.00,,CLR,0.00,VWS V13.01,2013-03-03 07:11:00,
2013-03-03 00:16:00,36.7,16.3,29.93,SE,133,0.0,0.0,43,0.00,,CLR,0.00,VWS V13.01,2013-03-03 07:16:00,
2013-03-03 00:21:00,36.5,16.1,29.93,SE,130,0.0,0.0,43,0.00,,CLR,0.00,VWS V13.01,2013-03-03 07:21:00,
2013-03-03 00:26:00,36.3,16.0,29.93,SE,130,0.0,0.0,43,0.00,,CLR,0.00,VWS V13.01,2013-03-03 07:26:00,
2013-03-03 00:31:00,36.3,16.0,29.93,SE,130,0.0,0.0,43,0.00,,CLR,0.00,VWS V13.01,2013-03-03 07:31:00,
2013-03-03 00:36:00,36.1,16.4,29.93,SE,130,0.0,0.0,44,0.00,,CLR,0.00,VWS V13.01,2013-03-03 07:36:00,
2013-03-03 00:41:00,36.1,16.4,29.90,SE,130,0.0,0.0,44,0.00,,CLR,0.00,VWS V13.01,2013-03-03 07:41:00,
2013-03-03 00:46:00,36.1,16.4,29.90,SE,130,0.0,0.0,44,0.00,,CLR,0.00,VWS V13.01,2013-03-03 07:46:00,
2013-03-03 00:51:00,36.0,16.2,29.90,SE,130,0.0,0.0,44,0.00,,CLR,0.00,VWS V13.01,2013-03-03 07:51:00,
2013-03-03 00:56:00,35.8,16.0,29.90,SE,130,0.0,0.0,44,0.00,,CLR,0.00,VWS V13.01,2013-03-03 07:56:00,
2013-03-03 01:01:00,35.8,16.0,29.90,SE,130,0.0,0.0,44,0.00,,CLR,0.00,VWS V13.01,2013-03-03 08:01:00,
2013-03-03 01:06:00,35.8,16.0,29.90,SE,130,0.0,3.1,44,0.00,,CLR,0.00,VWS V13.01,2013-03-03 08:06:00,
2013-03-03 01:11:00,35.6,15.9,29.90,SE,130,0.0,3.1,44,0.00,,CLR,0.00,VWS V13.01,2013-03-03 08:11:00,
2013-03-03 01:16:00,35.6,15.9,29.90,SE,130,0.0,0.0,44,0.00,,CLR,0.00,VWS V13.01,2013-03-03 08:16:00,
2013-03-03 01:22:00,35.6,17.4,29.90,ESE,122,3.6,4.0,47,0.00,,CLR,0.00,VWS V13.01,2013-03-03 08:22:00,
2013-03-03 01:27:00,35.6,16.9,29.87,SE,136,0.0,4.0,46,0.00,,CLR,0.00,VWS V13.01,2013-03-03 08:27:00,
2013-03-03 01:32:00,35.6,16.9,29.87,SE,136,0.0,0.0,46,0.00,,CLR,0.00,VWS V13.01,2013-03-03 08:32:00,
2013-03-03 01:37:00,35.6,16.9,29.87,SE,136,0.0,0.0,46,0.00,,CLR,0.00,VWS V13.01,2013-03-03 08:37:00,
2013-03-03 01:42:00,35.6,17.4,29.87,ESE,115,3.6,4.0,47,0.00,,CLR,0.00,VWS V13.01,2013-03-03 08:42:00,
2013-03-03 01:47:00,35.4,17.7,29.87,ESE,111,0.0,2.2,48,0.00,,CLR,0.00,VWS V13.01,2013-03-03 08:47:00,
2013-03-03 01:52:00,35.6,17.4,29.87,ESE,111,0.0,2.2,47,0.00,,CLR,0.00,VWS V13.01,2013-03-03 08:52:00,
2013-03-03 01:57:00,35.6,17.4,29.87,ESE,111,0.0,2.2,47,0.00,,CLR,0.00,VWS V13.01,2013-03-03 08:57:00,
2013-03-03 02:02:00,35.6,17.4,29.87,ESE,111,0.0,0.0,47,0.00,,CLR,0.00,VWS V13.01,2013-03-03 09:02:00,
2013-03-03 02:07:00,35.6,17.4,29.87,ESE,111,0.0,0.0,47,0.00,,SCT210,0.00,VWS V13.01,2013-03-03 09:07:00,
2013-03-03 02:12:00,35.4,17.7,29.84,ESE,116,2.2,4.0,48,0.00,,SCT210,0.00,VWS V13.01,2013-03-03 09:12:00,
2013-03-03 02:17:00,35.4,17.7,29.84,ESE,116,0.0,0.0,48,0.00,,SCT210,0.00,VWS V13.01,2013-03-03 09:17:00,
2013-03-03 02:22:00,35.4,17.7,29.84,ESE,116,3.1,3.1,48,0.00,,SCT210,0.00,VWS V13.01,2013-03-03 09:22:00,
2013-03-03 02:27:00,35.4,18.2,29.84,ESE,116,2.7,3.1,49,0.00,,SCT210,0.00,VWS V13.01,2013-03-03 09:27:00,
2013-03-03 02:32:00,35.2,18.0,29.84,ESE,111,0.0,0.0,49,0.00,,SCT210,0.00,VWS V13.01,2013-03-03 09:32:00,
2013-03-03 02:37:00,35.2,18.0,29.84,ESE,111,0.0,0.0,49,0.00,,SCT210,0.00,VWS V13.01,2013-03-03 09:37:00,
2013-03-03 02:42:00,35.1,17.4,29.81,ESE,111,0.0,0.0,48,0.00,,SCT210,0.00,VWS V13.01,2013-03-03 09:42:00,
2013-03-03 02:47:00,35.1,17.4,29.81,ESE,111,0.0,0.0,48,0.00,,SCT210,0.00,VWS V13.01,2013-03-03 09:47:00,
2013-03-03 02:52:00,35.1,17.4,29.81,ESE,111,0.0,0.0,48,0.00,,SCT210,0.00,VWS V13.01,2013-03-03 09:52:00,
2013-03-03 02:57:00,35.1,17.4,29.81,ESE,111,0.0,0.0,48,0.00,,SCT210,0.00,VWS V13.01,2013-03-03 09:57:00,
2013-03-03 03:02:00,35.1,17.4,29.81,ESE,111,0.0,0.0,48,0.00,,SCT210,0.00,VWS V13.01,2013-03-03 10:02:00,
2013-03-03 03:07:00,34.9,17.2,29.81,ESE,111,0.0,0.0,48,0.00,,SCT200,0.00,VWS V13.01,2013-03-03 10:07:00,
2013-03-03 03:12:00,34.7,17.5,29.81,ESE,122,2.2,4.0,49,0.00,,SCT200,0.00,VWS V13.01,2013-03-03 10:12:00,
2013-03-03 03:17:00,34.7,18.0,29.81,ESE,117,0.0,0.0,50,0.00,,SCT200,0.00,VWS V13.01,2013-03-03 10:17:00,
2013-03-03 03:22:00,34.7,18.0,29.81,ESE,117,0.0,0.0,50,0.00,,SCT200,0.00,VWS V13.01,2013-03-03 10:22:00,
2013-03-03 03:27:00,34.7,18.0,29.81,ESE,117,0.0,0.0,50,0.00,,SCT200,0.00,VWS V13.01,2013-03-03 10:27:00,
2013-03-03 03:32:00,34.5,17.8,29.81,SE,136,0.0,0.0,50,0.00,,SCT200,0.00,VWS V13.01,2013-03-03 10:32:00,
2013-03-03 03:37:00,34.3,17.6,29.81,SE,127,0.0,2.7,50,0.00,,SCT200,0.00,VWS V13.01,2013-03-03 10:37:00,
2013-03-03 03:42:00,34.2,17.9,29.78,East,95,0.0,3.1,51,0.00,,SCT200,0.00,VWS V13.01,2013-03-03 10:42:00,
2013-03-03 03:47:00,34.2,17.9,29.78,WNW,290,0.0,3.6,51,0.00,,SCT200,0.00,VWS V13.01,2013-03-03 10:47:00,
2013-03-03 03:52:00,34.0,17.8,29.78,WNW,290,0.0,3.6,51,0.00,,SCT200,0.00,VWS V13.01,2013-03-03 10:52:00,
2013-03-03 03:57:00,34.0,17.8,29.78,WNW,302,0.0,3.6,51,0.00,,SCT200,0.00,VWS V13.01,2013-03-03 10:57:00,
2013-03-03 04:02:00,34.0,17.3,29.78,West,262,2.2,3.6,50,0.00,,SCT200,0.00,VWS V13.01,2013-03-03 11:02:00,
2013-03-03 04:07:00,33.8,17.1,29.78,West,263,0.0,3.6,50,0.00,,FEW200,0.00,VWS V13.01,2013-03-03 11:07:00,
2013-03-03 04:12:00,33.8,17.6,29.78,North,4,0.0,3.6,51,0.00,,FEW200,0.00,VWS V13.01,2013-03-03 11:12:00,
2013-03-03 04:17:00,33.8,17.6,29.78,ENE,71,2.2,3.6,51,0.00,,FEW200,0.00,VWS V13.01,2013-03-03 11:17:00,
2013-03-03 04:22:00,34.0,17.8,29.78,North,353,0.0,3.6,51,0.00,,FEW200,0.00,VWS V13.01,2013-03-03 11:22:00,
2013-03-03 04:27:00,33.8,17.1,29.78,NW,315,3.6,3.6,50,0.00,,FEW200,0.00,VWS V13.01,2013-03-03 11:27:00,
2013-03-03 04:32:00,34.0,17.3,29.78,East,88,2.7,3.6,50,0.00,,FEW200,0.00,VWS V13.01,2013-03-03 11:32:00,
2013-03-03 04:37:00,34.0,17.3,29.78,East,88,0.0,3.6,50,0.00,,FEW200,0.00,VWS V13.01,2013-03-03 11:37:00,
2013-03-03 04:42:00,34.2,17.0,29.78,ESE,121,4.0,5.4,49,0.00,,FEW200,0.00,VWS V13.01,2013-03-03 11:42:00,
2013-03-03 04:47:00,34.0,16.8,29.78,ESE,113,0.0,0.0,49,0.00,,FEW200,0.00,VWS V13.01,2013-03-03 11:47:00,
2013-03-03 04:52:00,34.0,16.8,29.78,SSE,165,3.1,3.1,49,0.00,,FEW200,0.00,VWS V13.01,2013-03-03 11:52:00,
2013-03-03 04:58:00,33.8,16.2,29.78,SSE,156,0.0,5.4,48,0.00,,FEW200,0.00,VWS V13.01,2013-03-03 11:58:00,
2013-03-03 05:03:00,33.8,16.2,29.78,SW,229,2.2,3.6,48,0.00,,BKN230,0.00,VWS V13.01,2013-03-03 12:03:00,
2013-03-03 05:08:00,34.0,15.9,29.78,SW,230,0.0,3.6,47,0.00,,BKN230,0.00,VWS V13.01,2013-03-03 12:08:00,
2013-03-03 05:13:00,34.0,15.9,29.75,ESE,108,3.6,3.6,47,0.00,,BKN230,0.00,VWS V13.01,2013-03-03 12:13:00,
2013-03-03 05:18:00,34.0,15.9,29.75,WNW,295,0.0,5.4,47,0.00,,BKN230,0.00,VWS V13.01,2013-03-03 12:18:00,
2013-03-03 05:23:00,34.0,15.9,29.75,WSW,252,3.6,5.4,47,0.00,,BKN230,0.00,VWS V13.01,2013-03-03 12:23:00,
2013-03-03 05:28:00,34.0,15.4,29.75,WSW,253,0.0,5.4,46,0.00,,BKN230,0.00,VWS V13.01,2013-03-03 12:28:00,
2013-03-03 05:33:00,34.3,15.7,29.75,WNW,298,3.6,5.4,46,0.00,,BKN230,0.00,VWS V13.01,2013-03-03 12:33:00,
2013-03-03 05:38:00,34.5,15.4,29.75,WNW,291,2.7,5.4,45,0.00,,BKN230,0.00,VWS V13.01,2013-03-03 12:38:00,
2013-03-03 05:43:00,34.3,14.7,29.78,SSW,203,3.1,5.4,44,0.00,,BKN230,0.00,VWS V13.01,2013-03-03 12:43:00,
2013-03-03 05:48:00,34.3,14.7,29.78,SE,133,4.0,5.8,44,0.00,,BKN230,0.00,VWS V13.01,2013-03-03 12:48:00,
2013-03-03 05:53:00,34.3,14.7,29.78,SW,225,4.0,5.8,44,0.00,,BKN230,0.00,VWS V13.01,2013-03-03 12:53:00,
2013-03-03 05:58:00,34.3,14.2,29.78,South,184,4.0,5.8,43,0.00,,BKN230,0.00,VWS V13.01,2013-03-03 12:58:00,
2013-03-03 06:03:00,34.3,14.2,29.78,WSW,239,3.1,4.0,43,0.00,,SCT230,0.00,VWS V13.01,2013-03-03 13:03:00,
2013-03-03 06:08:00,34.3,14.2,29.78,South,187,3.1,4.0,43,0.00,,SCT230,0.00,VWS V13.01,2013-03-03 13:08:00,
2013-03-03 06:13:00,34.2,14.0,29.78,South,187,0.0,4.0,43,0.00,,SCT230,0.00,VWS V13.01,2013-03-03 13:13:00,
2013-03-03 06:18:00,34.2,13.5,29.78,SW,235,0.0,0.0,42,0.00,,SCT230,0.00,VWS V13.01,2013-03-03 13:18:00,
2013-03-03 06:23:00,34.3,13.6,29.78,SW,236,0.0,0.0,42,0.00,,SCT230,0.00,VWS V13.01,2013-03-03 13:23:00,
2013-03-03 06:28:00,34.5,13.8,29.78,West,262,0.0,0.0,42,0.00,,SCT230,0.00,VWS V13.01,2013-03-03 13:28:00,
2013-03-03 06:33:00,34.5,13.8,29.78,SE,124,5.8,5.8,42,0.00,,SCT230,0.00,VWS V13.01,2013-03-03 13:33:00,
2013-03-03 06:38:00,34.3,13.6,29.78,WNW,303,3.6,5.8,42,0.00,,SCT230,0.00,VWS V13.01,2013-03-03 13:38:00,
2013-03-03 06:43:00,34.5,13.8,29.78,SW,219,2.7,5.8,42,0.00,,SCT230,0.00,VWS V13.01,2013-03-03 13:43:00,
2013-03-03 06:48:00,34.5,13.8,29.78,WNW,289,3.1,5.4,42,0.00,,SCT230,0.00,VWS V13.01,2013-03-03 13:48:00,
2013-03-03 06:53:00,34.5,13.8,29.78,SSW,197,2.2,5.4,42,0.00,,SCT230,0.00,VWS V13.01,2013-03-03 13:53:00,
2013-03-03 06:58:00,34.5,13.8,29.75,SW,215,0.0,5.4,42,0.00,,SCT230,0.00,VWS V13.01,2013-03-03 13:58:00,
2013-03-03 07:03:00,34.3,13.6,29.75,SSE,155,2.7,4.0,42,0.00,,SCT230,0.00,VWS V13.01,2013-03-03 14:03:00,
2013-03-03 07:08:00,34.3,13.6,29.75,SSW,209,0.0,4.0,42,0.00,,CLR,0.00,VWS V13.01,2013-03-03 14:08:00,
2013-03-03 07:13:00,34.2,13.5,29.78,SSW,209,0.0,4.0,42,0.00,,CLR,0.00,VWS V13.01,2013-03-03 14:13:00,
2013-03-03 07:18:00,34.0,13.3,29.78,SE,131,0.0,3.1,42,0.00,,CLR,0.00,VWS V13.01,2013-03-03 14:18:00,
2013-03-03 07:23:00,34.2,14.0,29.78,WSW,246,4.0,5.4,43,0.00,,CLR,0.00,VWS V13.01,2013-03-03 14:23:00,
2013-03-03 07:28:00,34.7,14.5,29.78,SW,233,2.2,5.8,43,0.00,,CLR,0.00,VWS V13.01,2013-03-03 14:28:00,
2013-03-03 07:33:00,35.1,14.8,29.78,SSW,197,2.7,3.6,43,0.00,,CLR,0.00,VWS V13.01,2013-03-03 14:33:00,
2013-03-03 07:38:00,36.0,15.1,29.78,NNW,329,4.0,4.0,42,0.00,,CLR,0.00,VWS V13.01,2013-03-03 14:38:00,
2013-03-03 07:43:00,36.9,15.4,29.78,SSE,147,3.6,6.3,41,0.00,,CLR,0.00,VWS V13.01,2013-03-03 14:43:00,
2013-03-03 07:48:00,37.6,16.0,29.78,SSW,196,0.0,3.6,41,0.00,,CLR,0.00,VWS V13.01,2013-03-03 14:48:00,
2013-03-03 07:53:00,38.3,16.1,29.78,ENE,76,0.0,3.6,40,0.00,,CLR,0.00,VWS V13.01,2013-03-03 14:53:00,
2013-03-03 07:58:00,39.2,16.3,29.78,ENE,72,0.0,4.9,39,0.00,,CLR,0.00,VWS V13.01,2013-03-03 14:58:00,
2013-03-03 08:03:00,39.4,16.5,29.78,SE,125,4.9,5.4,39,0.00,,CLR,0.00,VWS V13.01,2013-03-03 15:03:00,
2013-03-03 08:08:00,39.9,17.0,29.78,ESE,105,3.6,5.4,39,0.00,,CLR,0.00,VWS V13.01,2013-03-03 15:08:00,
2013-03-03 08:13:00,40.3,17.3,29.78,SE,128,2.2,5.4,39,0.00,,CLR,0.00,VWS V13.01,2013-03-03 15:13:00,
2013-03-03 08:18:00,41.0,17.4,29.78,SE,132,0.0,3.1,38,0.00,,CLR,0.00,VWS V13.01,2013-03-03 15:18:00,
2013-03-03 08:23:00,41.5,17.8,29.78,South,171,2.7,3.1,38,0.00,,CLR,0.00,VWS V13.01,2013-03-03 15:23:00,
2013-03-03 08:29:00,41.9,18.2,29.78,South,183,0.0,3.1,38,0.00,,CLR,0.00,VWS V13.01,2013-03-03 15:29:00,
2013-03-03 08:34:00,42.3,18.5,29.78,SW,220,0.0,3.6,38,0.00,,CLR,0.00,VWS V13.01,2013-03-03 15:34:00,
2013-03-03 08:39:00,42.8,18.4,29.78,WSW,256,2.2,3.6,37,0.00,,CLR,0.00,VWS V13.01,2013-03-03 15:39:00,
2013-03-03 08:44:00,43.0,18.5,29.78,WSW,256,0.0,3.6,37,0.00,,CLR,0.00,VWS V13.01,2013-03-03 15:44:00,
2013-03-03 08:49:00,43.2,18.0,29.78,WSW,243,3.6,3.6,36,0.00,,CLR,0.00,VWS V13.01,2013-03-03 15:49:00,
2013-03-03 08:54:00,43.7,18.5,29.78,SW,230,2.7,4.0,36,0.00,,CLR,0.00,VWS V13.01,2013-03-03 15:54:00,
2013-03-03 08:59:00,44.6,19.3,29.78,SSW,202,0.0,4.0,36,0.00,,CLR,0.00,VWS V13.01,2013-03-03 15:59:00,
2013-03-03 09:04:00,45.0,18.3,29.78,SW,226,3.6,4.9,34,0.00,,FEW210,0.00,VWS V13.01,2013-03-03 16:04:00,
2013-03-03 09:09:00,45.3,18.6,29.78,SW,236,2.2,4.9,34,0.00,,FEW210,0.00,VWS V13.01,2013-03-03 16:09:00,
2013-03-03 09:14:00,45.7,18.9,29.75,WSW,237,4.9,4.9,34,0.00,,FEW210,0.00,VWS V13.01,2013-03-03 16:14:00,
2013-03-03 09:19:00,46.2,19.4,29.75,SW,220,0.0,0.0,34,0.00,,FEW210,0.00,VWS V13.01,2013-03-03 16:19:00,
2013-03-03 09:24:00,47.1,18.8,29.75,SW,222,3.1,3.1,32,0.00,,FEW210,0.00,VWS V13.01,2013-03-03 16:24:00,
2013-03-03 09:29:00,47.5,18.4,29.75,South,184,5.4,6.3,31,0.00,,FEW210,0.00,VWS V13.01,2013-03-03 16:29:00,
2013-03-03 09:34:00,48.6,19.3,29.75,SSW,210,3.1,5.8,31,0.00,,FEW210,0.00,VWS V13.01,2013-03-03 16:34:00,
2013-03-03 09:39:00,49.3,19.2,29.75,SW,216,4.0,5.8,30,0.00,,FEW210,0.00,VWS V13.01,2013-03-03 16:39:00,
2013-03-03 09:44:00,49.6,19.5,29.75,South,178,2.2,5.8,30,0.00,,FEW210,0.00,VWS V13.01,2013-03-03 16:44:00,
2013-03-03 09:49:00,50.5,19.5,29.75,East,91,0.0,4.0,29,0.00,,FEW210,0.00,VWS V13.01,2013-03-03 16:49:00,
2013-03-03 09:54:00,51.4,20.3,29.75,South,182,0.0,4.0,29,0.00,,FEW210,0.00,VWS V13.01,2013-03-03 16:54:00,
2013-03-03 09:59:00,52.0,19.9,29.75,SSW,208,4.9,5.8,28,0.00,,FEW210,0.00,VWS V13.01,2013-03-03 16:59:00,
2013-03-03 10:04:00,52.3,19.4,29.75,SW,220,0.0,4.0,27,0.00,,CLR,0.00,VWS V13.01,2013-03-03 17:04:00,
2013-03-03 10:09:00,52.9,19.8,29.75,SSW,194,3.6,4.9,27,0.00,,CLR,0.00,VWS V13.01,2013-03-03 17:09:00,
2013-03-03 10:14:00,53.4,20.3,29.72,SSW,209,3.6,5.8,27,0.00,,CLR,0.00,VWS V13.01,2013-03-03 17:14:00,
2013-03-03 10:19:00,54.1,20.9,29.72,SSE,158,2.7,4.9,27,0.00,,CLR,0.00,VWS V13.01,2013-03-03 17:19:00,
2013-03-03 10:24:00,54.5,20.3,29.72,South,173,0.0,4.9,26,0.00,,CLR,0.00,VWS V13.01,2013-03-03 17:24:00,
2013-03-03 10:29:00,55.2,21.0,29.72,South,183,0.0,4.9,26,0.00,,CLR,0.00,VWS V13.01,2013-03-03 17:29:00,
2013-03-03 10:34:00,55.9,21.6,29.72,SE,146,0.0,3.1,26,0.00,,CLR,0.00,VWS V13.01,2013-03-03 17:34:00,
2013-03-03 10:39:00,56.5,21.1,29.72,WSW,248,0.0,4.9,25,0.00,,CLR,0.00,VWS V13.01,2013-03-03 17:39:00,
2013-03-03 10:44:00,56.8,21.4,29.72,SW,222,3.1,4.9,25,0.00,,CLR,0.00,VWS V13.01,2013-03-03 17:44:00,
2013-03-03 10:49:00,57.6,22.0,29.72,SW,225,3.6,4.0,25,0.00,,CLR,0.00,VWS V13.01,2013-03-03 17:49:00,
2013-03-03 10:54:00,57.9,22.3,29.72,SSE,147,5.4,5.4,25,0.00,,CLR,0.00,VWS V13.01,2013-03-03 17:54:00,
2013-03-03 10:59:00,58.1,22.5,29.72,SE,141,0.0,5.4,25,0.00,,CLR,0.00,VWS V13.01,2013-03-03 17:59:00,
2013-03-03 11:04:00,58.3,21.7,29.72,West,263,0.0,3.1,24,0.00,,CLR,0.00,VWS V13.01,2013-03-03 18:04:00,
2013-03-03 11:09:00,58.8,22.1,29.72,SE,139,3.1,3.1,24,0.00,,CLR,0.00,VWS V13.01,2013-03-03 18:09:00,
2013-03-03 11:14:00,59.4,20.5,29.72,SSW,212,3.1,5.4,22,0.00,,CLR,0.00,VWS V13.01,2013-03-03 18:14:00,
2013-03-03 11:19:00,59.5,20.7,29.72,SSE,158,2.2,3.1,22,0.00,,CLR,0.00,VWS V13.01,2013-03-03 18:19:00,
2013-03-03 11:24:00,59.7,20.8,29.72,SW,225,0.0,4.0,22,0.00,,CLR,0.00,VWS V13.01,2013-03-03 18:24:00,
2013-03-03 11:29:00,60.1,21.1,29.69,SW,225,2.2,4.0,22,0.00,,CLR,0.00,VWS V13.01,2013-03-03 18:29:00,
2013-03-03 11:34:00,60.4,21.4,29.69,SSW,206,2.7,5.8,22,0.00,,CLR,0.00,VWS V13.01,2013-03-03 18:34:00,
2013-03-03 11:39:00,60.6,21.6,29.69,West,273,2.2,5.8,22,0.00,,CLR,0.00,VWS V13.01,2013-03-03 18:39:00,
2013-03-03 11:44:00,60.8,20.6,29.69,SW,220,0.0,5.8,21,0.00,,CLR,0.00,VWS V13.01,2013-03-03 18:44:00,
2013-03-03 11:49:00,60.6,18.2,29.69,East,100,3.1,3.6,19,0.00,,CLR,0.00,VWS V13.01,2013-03-03 18:49:00,
2013-03-03 11:54:00,60.8,18.3,29.69,SE,125,3.6,3.6,19,0.00,,CLR,0.00,VWS V13.01,2013-03-03 18:54:00,
2013-03-03 11:59:00,61.0,18.5,29.69,SSW,210,2.7,4.0,19,0.00,,CLR,0.00,VWS V13.01,2013-03-03 18:59:00,
2013-03-03 12:04:00,61.0,18.5,29.69,SE,128,0.0,3.1,19,0.00,,FEW200,0.00,VWS V13.01,2013-03-03 19:04:00,
2013-03-03 12:09:00,61.0,18.5,29.69,East,87,2.7,4.5,19,0.00,,FEW200,0.00,VWS V13.01,2013-03-03 19:09:00,
2013-03-03 12:14:00,61.2,18.6,29.69,SSW,197,0.0,4.5,19,0.00,,FEW200,0.00,VWS V13.01,2013-03-03 19:14:00,
2013-03-03 12:19:00,61.2,18.6,29.69,ESE,111,2.2,4.0,19,0.00,,FEW200,0.00,VWS V13.01,2013-03-03 19:19:00,
2013-03-03 12:24:00,61.5,18.9,29.69,SSE,150,5.8,5.8,19,0.00,,FEW200,0.00,VWS V13.01,2013-03-03 19:24:00,
2013-03-03 12:29:00,61.7,19.0,29.66,SE,131,3.1,5.8,19,0.00,,FEW200,0.00,VWS V13.01,2013-03-03 19:29:00,
2013-03-03 12:34:00,62.1,19.3,29.66,East,79,4.0,5.4,19,0.00,,FEW200,0.00,VWS V13.01,2013-03-03 19:34:00,
2013-03-03 12:39:00,62.2,19.5,29.66,ESE,106,4.9,6.3,19,0.00,,FEW200,0.00,VWS V13.01,2013-03-03 19:39:00,
2013-03-03 12:44:00,63.0,18.8,29.66,SE,126,3.6,7.6,18,0.00,,FEW200,0.00,VWS V13.01,2013-03-03 19:44:00,
2013-03-03 12:49:00,63.1,16.2,29.66,ESE,115,4.9,5.8,16,0.00,,FEW200,0.00,VWS V13.01,2013-03-03 19:49:00,
2013-03-03 12:54:00,63.1,16.2,29.66,East,93,5.8,7.6,16,0.00,,FEW200,0.00,VWS V13.01,2013-03-03 19:54:00,
2013-03-03 12:59:00,63.1,16.2,29.66,ESE,123,3.1,7.6,16,0.00,,FEW200,0.00,VWS V13.01,2013-03-03 19:59:00,
2013-03-03 13:04:00,63.5,16.5,29.66,SSE,162,3.1,5.8,16,0.00,,CLR,0.00,VWS V13.01,2013-03-03 20:04:00,
2013-03-03 13:09:00,63.9,16.8,29.66,ESE,114,4.0,6.3,16,0.00,,CLR,0.00,VWS V13.01,2013-03-03 20:09:00,
2013-03-03 13:14:00,63.7,16.7,29.63,East,96,3.1,6.3,16,0.00,,CLR,0.00,VWS V13.01,2013-03-03 20:14:00,
2013-03-03 13:19:00,63.9,16.8,29.63,ESE,103,3.1,7.6,16,0.00,,CLR,0.00,VWS V13.01,2013-03-03 20:19:00,
2013-03-03 13:24:00,63.7,16.7,29.63,SE,131,3.6,7.6,16,0.00,,CLR,0.00,VWS V13.01,2013-03-03 20:24:00,
2013-03-03 13:29:00,63.7,16.7,29.63,ESE,113,2.7,7.6,16,0.00,,CLR,0.00,VWS V13.01,2013-03-03 20:29:00,
2013-03-03 13:34:00,63.7,16.7,29.63,ESE,107,2.7,6.3,16,0.00,,CLR,0.00,VWS V13.01,2013-03-03 20:34:00,
2013-03-03 13:39:00,63.5,16.5,29.63,NE,39,4.0,6.3,16,0.00,,CLR,0.00,VWS V13.01,2013-03-03 20:39:00,
2013-03-03 13:44:00,63.1,16.2,29.63,East,99,3.6,7.6,16,0.00,,CLR,0.00,VWS V13.01,2013-03-03 20:44:00,
2013-03-03 13:49:00,63.0,16.1,29.63,East,88,4.9,6.3,16,0.00,,CLR,0.00,VWS V13.01,2013-03-03 20:49:00,
2013-03-03 13:54:00,62.8,15.9,29.63,East,83,4.9,8.1,16,0.00,,CLR,0.00,VWS V13.01,2013-03-03 20:54:00,
2013-03-03 13:59:00,62.8,15.9,29.63,ENE,69,3.1,8.1,16,0.00,,CLR,0.00,VWS V13.01,2013-03-03 20:59:00,
2013-03-03 14:04:00,63.0,16.1,29.63,East,87,6.3,8.3,16,0.00,,CLR,0.00,VWS V13.01,2013-03-03 21:04:00,
2013-03-03 14:10:00,63.0,16.1,29.63,East,91,7.6,8.3,16,0.00,,CLR,0.00,VWS V13.01,2013-03-03 21:10:00,
2013-03-03 14:15:00,63.0,16.1,29.63,ENE,69,5.8,8.3,16,0.00,,CLR,0.00,VWS V13.01,2013-03-03 21:15:00,
2013-03-03 14:20:00,63.0,16.1,29.63,ESE,113,2.7,6.3,16,0.00,,CLR,0.00,VWS V13.01,2013-03-03 21:20:00,
2013-03-03 14:25:00,63.1,16.2,29.63,NE,54,3.1,6.3,16,0.00,,CLR,0.00,VWS V13.01,2013-03-03 21:25:00,
2013-03-03 14:30:00,63.0,16.1,29.60,ESE,116,3.1,6.3,16,0.00,,CLR,0.00,VWS V13.01,2013-03-03 21:30:00,
2013-03-03 14:35:00,63.1,16.2,29.60,East,100,4.0,4.0,16,0.00,,CLR,0.00,VWS V13.01,2013-03-03 21:35:00,
2013-03-03 14:40:00,63.0,16.1,29.60,East,97,3.1,6.3,16,0.00,,CLR,0.00,VWS V13.01,2013-03-03 21:40:00,
2013-03-03 14:45:00,63.0,16.1,29.60,NE,37,4.0,6.3,16,0.00,,CLR,0.00,VWS V13.01,2013-03-03 21:45:00,
2013-03-03 14:50:00,62.8,15.9,29.60,ENE,71,2.7,4.0,16,0.00,,CLR,0.00,VWS V13.01,2013-03-03 21:50:00,
2013-03-03 14:55:00,62.6,15.8,29.60,ENE,63,3.6,5.4,16,0.00,,CLR,0.00,VWS V13.01,2013-03-03 21:55:00,
2013-03-03 15:00:00,62.4,15.7,29.63,ENE,57,3.6,5.4,16,0.00,,CLR,0.00,VWS V13.01,2013-03-03 22:00:00,
2013-03-03 15:05:00,62.2,15.5,29.63,East,93,3.1,5.4,16,0.00,,CLR,0.00,VWS V13.01,2013-03-03 22:05:00,
2013-03-03 15:10:00,62.1,15.4,29.63,NNE,33,0.0,5.4,16,0.00,,CLR,0.00,VWS V13.01,2013-03-03 22:10:00,
2013-03-03 15:15:00,61.9,15.2,29.63,ENE,61,4.0,6.3,16,0.00,,CLR,0.00,VWS V13.01,2013-03-03 22:15:00,
2013-03-03 15:20:00,62.2,15.5,29.63,ESE,116,2.7,6.3,16,0.00,,CLR,0.00,VWS V13.01,2013-03-03 22:20:00,
2013-03-03 15:25:00,62.2,15.5,29.63,East,88,5.4,6.3,16,0.00,,CLR,0.00,VWS V13.01,2013-03-03 22:25:00,
2013-03-03 15:30:00,61.9,15.2,29.60,ENE,57,4.9,4.9,16,0.00,,CLR,0.00,VWS V13.01,2013-03-03 22:30:00,
2013-03-03 15:35:00,61.5,14.9,29.60,East,90,3.6,6.3,16,0.00,,CLR,0.00,VWS V13.01,2013-03-03 22:35:00,
2013-03-03 15:40:00,61.5,14.9,29.60,ENE,77,5.8,6.3,16,0.00,,CLR,0.00,VWS V13.01,2013-03-03 22:40:00,
2013-03-03 15:45:00,61.3,14.8,29.63,East,87,5.4,5.4,16,0.00,,CLR,0.00,VWS V13.01,2013-03-03 22:45:00,
2013-03-03 15:50:00,61.3,14.8,29.63,SE,126,4.9,6.3,16,0.00,,CLR,0.00,VWS V13.01,2013-03-03 22:50:00,
2013-03-03 15:55:00,61.2,14.6,29.63,SE,126,3.1,6.3,16,0.00,,CLR,0.00,VWS V13.01,2013-03-03 22:55:00,
2013-03-03 16:00:00,61.0,14.5,29.60,SE,139,4.0,5.8,16,0.00,,CLR,0.00,VWS V13.01,2013-03-03 23:00:00,
2013-03-03 16:05:00,60.8,14.4,29.60,ESE,109,5.4,8.1,16,0.00,,CLR,0.00,VWS V13.01,2013-03-03 23:05:00,
2013-03-03 16:10:00,60.6,15.6,29.60,East,93,5.8,8.3,17,0.00,,CLR,0.00,VWS V13.01,2013-03-03 23:10:00,
2013-03-03 16:15:00,60.4,15.4,29.63,NE,54,5.8,5.8,17,0.00,,CLR,0.00,VWS V13.01,2013-03-03 23:15:00,
2013-03-03 16:20:00,60.1,15.1,29.63,East,98,3.1,7.6,17,0.00,,CLR,0.00,VWS V13.01,2013-03-03 23:20:00,
2013-03-03 16:25:00,60.1,15.1,29.63,East,81,3.6,7.6,17,0.00,,CLR,0.00,VWS V13.01,2013-03-03 23:25:00,
2013-03-03 16:30:00,59.9,15.0,29.63,ENE,67,3.1,4.0,17,0.00,,CLR,0.00,VWS V13.01,2013-03-03 23:30:00,
2013-03-03 16:35:00,59.7,14.9,29.63,NNE,22,0.0,4.0,17,0.00,,CLR,0.00,VWS V13.01,2013-03-03 23:35:00,
2013-03-03 16:40:00,59.7,14.9,29.63,ENE,71,3.1,5.4,17,0.00,,CLR,0.00,VWS V13.01,2013-03-03 23:40:00,
2013-03-03 16:45:00,59.5,14.7,29.63,NE,54,5.4,5.4,17,0.00,,CLR,0.00,VWS V13.01,2013-03-03 23:45:00,
2013-03-03 16:50:00,59.4,14.6,29.63,ENE,73,3.1,6.3,17,0.00,,CLR,0.00,VWS V13.01,2013-03-03 23:50:00,
2013-03-03 16:55:00,59.2,14.4,29.63,East,101,5.4,6.3,17,0.00,,CLR,0.00,VWS V13.01,2013-03-03 23:55:00,
2013-03-03 17:00:00,59.0,14.3,29.63,East,85,2.7,3.6,17,0.00,,CLR,0.00,VWS V13.01,2013-03-04 00:00:00,
2013-03-03 17:05:00,58.8,14.1,29.63,East,81,2.7,5.4,17,0.00,,CLR,0.00,VWS V13.01,2013-03-04 00:05:00,
2013-03-03 17:10:00,58.6,14.0,29.63,East,98,5.8,5.8,17,0.00,,CLR,0.00,VWS V13.01,2013-03-04 00:10:00,
2013-03-03 17:15:00,58.3,13.7,29.63,East,96,2.2,2.2,17,0.00,,CLR,0.00,VWS V13.01,2013-03-04 00:15:00,
2013-03-03 17:20:00,57.9,13.4,29.63,ESE,112,3.1,4.9,17,0.00,,CLR,0.00,VWS V13.01,2013-03-04 00:20:00,
2013-03-03 17:25:00,57.6,13.1,29.63,SE,127,0.0,5.4,17,0.00,,CLR,0.00,VWS V13.01,2013-03-04 00:25:00,
2013-03-03 17:30:00,57.4,12.9,29.63,NNE,32,0.0,0.0,17,0.00,,CLR,0.00,VWS V13.01,2013-03-04 00:30:00,
2013-03-03 17:35:00,56.8,12.5,29.63,West,276,0.0,7.6,17,0.00,,CLR,0.00,VWS V13.01,2013-03-04 00:35:00,
2013-03-03 17:40:00,56.7,12.4,29.63,WNW,295,2.7,8.1,17,0.00,,CLR,0.00,VWS V13.01,2013-03-04 00:40:00,
2013-03-03 17:45:00,56.3,12.1,29.63,WNW,292,4.9,4.9,17,0.00,,CLR,0.00,VWS V13.01,2013-03-04 00:45:00,
2013-03-03 17:50:00,55.9,11.8,29.63,WNW,283,2.2,6.7,17,0.00,,CLR,0.00,VWS V13.01,2013-03-04 00:50:00,
2013-03-03 17:55:00,55.4,11.3,29.63,WNW,290,5.4,6.7,17,0.00,,CLR,0.00,VWS V13.01,2013-03-04 00:55:00,
2013-03-03 18:00:00,54.9,12.2,29.63,WNW,286,2.7,4.0,18,0.00,,CLR,0.00,VWS V13.01,2013-03-04 01:00:00,
2013-03-03 18:05:00,54.3,11.7,29.63,NW,319,0.0,4.0,18,0.00,,CLR,0.00,VWS V13.01,2013-03-04 01:05:00,
2013-03-03 18:10:00,53.8,11.3,29.63,WNW,299,0.0,4.0,18,0.00,,CLR,0.00,VWS V13.01,2013-03-04 01:10:00,
2013-03-03 18:15:00,53.1,10.7,29.63,WSW,245,0.0,2.2,18,0.00,,CLR,0.00,VWS V13.01,2013-03-04 01:15:00,
2013-03-03 18:21:00,52.9,10.6,29.63,South,172,3.6,10.5,18,0.00,,CLR,0.00,VWS V13.01,2013-03-04 01:21:00,
2013-03-03 18:26:00,53.1,10.7,29.63,WNW,295,6.3,12.8,18,0.00,,CLR,0.00,VWS V13.01,2013-03-04 01:26:00,
2013-03-03 18:31:00,53.1,10.7,29.63,NW,318,2.2,3.6,18,0.00,,CLR,0.00,VWS V13.01,2013-03-04 01:31:00,
2013-03-03 18:36:00,52.9,10.6,29.63,NNW,327,3.6,10.5,18,0.00,,CLR,0.00,VWS V13.01,2013-03-04 01:36:00,
2013-03-03 18:41:00,53.1,10.7,29.63,NW,324,3.1,11.0,18,0.00,,CLR,0.00,VWS V13.01,2013-03-04 01:41:00,
2013-03-03 18:46:00,52.9,10.6,29.66,NNW,332,4.9,8.7,18,0.00,,CLR,0.00,VWS V13.01,2013-03-04 01:46:00,
2013-03-03 18:51:00,52.7,10.4,29.66,NW,311,6.3,12.3,18,0.00,,CLR,0.00,VWS V13.01,2013-03-04 01:51:00,
2013-03-03 18:56:00,52.7,10.4,29.66,West,260,6.3,13.2,18,0.00,,CLR,0.00,VWS V13.01,2013-03-04 01:56:00,
2013-03-03 19:01:00,52.7,10.4,29.66,NNW,343,6.3,8.3,18,0.00,,CLR,0.00,VWS V13.01,2013-03-04 02:01:00,
2013-03-03 19:06:00,52.5,10.2,29.66,North,357,5.4,11.9,18,0.00,,CLR,0.00,VWS V13.01,2013-03-04 02:06:00,
2013-03-03 19:11:00,52.3,10.1,29.66,NW,319,7.6,11.9,18,0.00,,CLR,0.00,VWS V13.01,2013-03-04 02:11:00,
2013-03-03 19:16:00,52.3,10.1,29.66,WNW,288,4.0,6.7,18,0.00,,CLR,0.00,VWS V13.01,2013-03-04 02:16:00,
2013-03-03 19:21:00,52.2,10.0,29.66,NW,310,11.4,12.3,18,0.00,,CLR,0.00,VWS V13.01,2013-03-04 02:21:00,
2013-03-03 19:26:00,52.3,10.1,29.66,WNW,303,8.7,17.4,18,0.00,,CLR,0.00,VWS V13.01,2013-03-04 02:26:00,
2013-03-03 19:31:00,52.3,10.1,29.66,NW,313,7.6,17.4,18,0.00,,CLR,0.00,VWS V13.01,2013-03-04 02:31:00,
2013-03-03 19:36:00,52.3,13.6,29.66,NW,305,11.0,17.4,21,0.00,,CLR,0.00,VWS V13.01,2013-03-04 02:36:00,
2013-03-03 19:41:00,52.2,13.4,29.66,West,268,9.2,17.4,21,0.00,,CLR,0.00,VWS V13.01,2013-03-04 02:41:00,
2013-03-03 19:46:00,52.0,13.3,29.66,NW,305,8.7,11.4,21,0.00,,CLR,0.00,VWS V13.01,2013-03-04 02:46:00,
2013-03-03 19:51:00,51.8,13.1,29.66,NW,323,6.3,12.8,21,0.00,,CLR,0.00,VWS V13.01,2013-03-04 02:51:00,
2013-03-03 19:56:00,51.8,13.1,29.66,NW,319,12.3,12.8,21,0.00,,CLR,0.00,VWS V13.01,2013-03-04 02:56:00,
2013-03-03 20:01:00,51.8,13.1,29.66,West,279,5.8,13.2,21,0.00,,CLR,0.00,VWS V13.01,2013-03-04 03:01:00,
2013-03-03 20:06:00,51.6,13.0,29.66,WNW,299,8.3,15.4,21,0.00,,CLR,0.00,VWS V13.01,2013-03-04 03:06:00,
2013-03-03 20:11:00,51.6,13.0,29.66,WNW,299,4.0,15.4,21,0.00,,CLR,0.00,VWS V13.01,2013-03-04 03:11:00,
2013-03-03 20:16:00,51.3,12.7,29.66,WNW,291,8.3,12.3,21,0.00,,CLR,0.00,VWS V13.01,2013-03-04 03:16:00,
2013-03-03 20:21:00,51.3,12.7,29.66,NW,314,8.3,12.8,21,0.00,,CLR,0.00,VWS V13.01,2013-03-04 03:21:00,
2013-03-03 20:26:00,51.1,12.5,29.66,West,274,4.9,12.8,21,0.00,,CLR,0.00,VWS V13.01,2013-03-04 03:26:00,
2013-03-03 20:31:00,50.9,12.4,29.66,WSW,237,3.1,4.9,21,0.00,,CLR,0.00,VWS V13.01,2013-03-04 03:31:00,
2013-03-03 20:36:00,50.2,11.8,29.66,SE,144,2.2,8.7,21,0.00,,CLR,0.00,VWS V13.01,2013-03-04 03:36:00,
2013-03-03 20:41:00,49.6,11.3,29.66,SW,226,0.0,8.7,21,0.00,,CLR,0.00,VWS V13.01,2013-03-04 03:41:00,
2013-03-03 20:46:00,48.9,10.7,29.66,SE,137,0.0,0.0,21,0.00,,CLR,0.00,VWS V13.01,2013-03-04 03:46:00,
2013-03-03 20:51:00,48.4,10.3,29.66,SE,137,0.0,0.0,21,0.00,,CLR,0.00,VWS V13.01,2013-03-04 03:51:00,
2013-03-03 20:56:00,47.5,12.5,29.66,SE,137,0.0,0.0,24,0.00,,CLR,0.00,VWS V13.01,2013-03-04 03:56:00,
2013-03-03 21:01:00,46.9,12.1,29.66,SSW,212,2.7,2.7,24,0.00,,CLR,0.00,VWS V13.01,2013-03-04 04:01:00,
2013-03-03 21:06:00,46.6,11.7,29.66,SW,222,0.0,4.0,24,0.00,,CLR,0.00,VWS V13.01,2013-03-04 04:06:00,
2013-03-03 21:11:00,46.0,12.2,29.66,SW,222,0.0,4.0,25,0.00,,CLR,0.00,VWS V13.01,2013-03-04 04:11:00,
2013-03-03 21:16:00,45.3,11.6,29.66,SW,222,0.0,0.0,25,0.00,,CLR,0.00,VWS V13.01,2013-03-04 04:16:00,
2013-03-03 21:21:00,44.8,11.1,29.66,SW,222,0.0,0.0,25,0.00,,CLR,0.00,VWS V13.01,2013-03-04 04:21:00,
2013-03-03 21:26:00,44.2,10.7,29.63,SW,222,0.0,0.0,25,0.00,,CLR,0.00,VWS V13.01,2013-03-04 04:26:00,
2013-03-03 21:31:00,43.7,12.8,29.63,SW,222,0.0,0.0,28,0.00,,CLR,0.00,VWS V13.01,2013-03-04 04:31:00,
2013-03-03 21:36:00,43.0,12.1,29.63,SSW,203,0.0,0.0,28,0.00,,CLR,0.00,VWS V13.01,2013-03-04 04:36:00,
2013-03-03 21:41:00,42.4,11.7,29.63,SSW,203,0.0,0.0,28,0.00,,CLR,0.00,VWS V13.01,2013-03-04 04:41:00,
2013-03-03 21:46:00,42.3,11.5,29.63,WSW,246,2.7,2.7,28,0.00,,CLR,0.00,VWS V13.01,2013-03-04 04:46:00,
2013-03-03 21:51:00,41.9,12.0,29.63,SSE,168,3.1,4.9,29,0.00,,CLR,0.00,VWS V13.01,2013-03-04 04:51:00,
2013-03-03 21:56:00,41.5,11.7,29.63,SE,145,0.0,4.9,29,0.00,,CLR,0.00,VWS V13.01,2013-03-04 04:56:00,
2013-03-03 22:00:00,41.2,11.4,29.63,WSW,244,3.1,4.9,29,0.00,,CLR,0.00,VWS V13.01,2013-03-04 05:00:00,
2013-03-03 22:05:00,41.5,12.4,29.63,SSW,199,3.6,7.6,30,0.00,,CLR,0.00,VWS V13.01,2013-03-04 05:05:00,
2013-03-03 22:10:00,41.4,13.0,29.63,East,92,4.0,7.6,31,0.00,,CLR,0.00,VWS V13.01,2013-03-04 05:10:00,
2013-03-03 22:15:00,41.2,12.9,29.63,SE,128,3.6,4.0,31,0.00,,CLR,0.00,VWS V13.01,2013-03-04 05:15:00,
2013-03-03 22:20:00,41.2,13.6,29.63,NE,38,0.0,4.9,32,0.00,,CLR,0.00,VWS V13.01,2013-03-04 05:20:00,
2013-03-03 22:25:00,41.0,13.4,29.63,ESE,121,5.4,6.3,32,0.00,,CLR,0.00,VWS V13.01,2013-03-04 05:25:00,
2013-03-03 22:30:00,41.0,14.1,29.63,NE,37,2.2,2.7,33,0.00,,CLR,0.00,VWS V13.01,2013-03-04 05:30:00,
2013-03-03 22:35:00,40.8,14.0,29.63,NE,37,0.0,2.7,33,0.00,,CLR,0.00,VWS V13.01,2013-03-04 05:35:00,
2013-03-03 22:40:00,40.5,13.6,29.63,NE,37,0.0,2.7,33,0.00,,CLR,0.00,VWS V13.01,2013-03-04 05:40:00,
2013-03-03 22:45:00,40.3,13.5,29.63,East,101,2.7,2.7,33,0.00,,CLR,0.00,VWS V13.01,2013-03-04 05:45:00,
2013-03-03 22:50:00,40.1,14.0,29.63,East,95,3.1,4.0,34,0.00,,CLR,0.00,VWS V13.01,2013-03-04 05:50:00,
2013-03-03 22:55:00,39.7,13.0,29.63,East,95,0.0,4.0,33,0.00,,CLR,0.00,VWS V13.01,2013-03-04 05:55:00,
2013-03-03 23:00:00,39.6,12.9,29.63,East,97,0.0,0.0,33,0.00,,CLR,0.00,VWS V13.01,2013-03-04 06:00:00,
2013-03-03 23:05:00,39.2,12.5,29.63,East,97,0.0,0.0,33,0.00,,CLR,0.00,VWS V13.01,2013-03-04 06:05:00,
2013-03-03 23:10:00,38.8,12.9,29.63,East,97,0.0,0.0,34,0.00,,CLR,0.00,VWS V13.01,2013-03-04 06:10:00,
2013-03-03 23:15:00,38.7,12.7,29.63,East,97,0.0,0.0,34,0.00,,CLR,0.00,VWS V13.01,2013-03-04 06:15:00,
2013-03-03 23:20:00,38.1,12.2,29.63,East,97,2.2,3.1,34,0.00,,CLR,0.00,VWS V13.01,2013-03-04 06:20:00,
2013-03-03 23:25:00,37.9,12.7,29.63,East,79,0.0,3.1,35,0.00,,CLR,0.00,VWS V13.01,2013-03-04 06:25:00,
2013-03-03 23:30:00,37.6,12.4,29.63,ENE,78,0.0,0.0,35,0.00,,CLR,0.00,VWS V13.01,2013-03-04 06:30:00,
2013-03-03 23:35:00,37.2,12.7,29.63,ESE,104,0.0,3.6,36,0.00,,CLR,0.00,VWS V13.01,2013-03-04 06:35:00,
2013-03-03 23:40:00,37.0,12.6,29.63,ESE,104,0.0,3.6,36,0.00,,CLR,0.00,VWS V13.01,2013-03-04 06:40:00,
2013-03-03 23:45:00,36.7,12.3,29.63,ESE,104,0.0,0.0,36,0.00,,CLR,0.00,VWS V13.01,2013-03-04 06:45:00,
2013-03-03 23:50:00,36.3,12.6,29.63,ESE,104,0.0,3.1,37,0.00,,CLR,0.00,VWS V13.01,2013-03-04 06:50:00,
2013-03-03 23:55:00,36.1,13.0,29.63,ESE,104,2.7,3.6,38,0.00,,CLR,0.00,VWS V13.01,2013-03-04 06:55:00,